Location: Arboyeti
(42.1122°N, 44.6017°E)
Time: 05:19:08
(UTC+00:00)

Cosmos 1818 - Pass Details

Date: 19 April 2021
Orbit: 772 x 802 km, 65.0° (Epoch: 09 May)

Event Time Altitude Azimuth Distance (km) Brightness Sun altitude
Rises 16:51:04 0° 205° (SSW) 3,263 6.7 -11.8°
Reaches altitude 10° 16:53:28 10° 203° (SSW) 2,343 6.0 -12.2°
Maximum altitude 16:58:50 72° 120° (ESE) 835 3.5 -13.0°
Drops below altitude 10° 17:04:17 10° 37° (NE) 2,376 6.0 -13.9°
Sets 17:06:43 0° 35° (NE) 3,313 6.7 -14.3°
